This demonstration page uses our WeatherBlox Daily Observations layout. Learn more.

Left ArrowRight Arrow

Hourly Observations for September 18, 2021

Temp ( °F °C ) Dew Point ( °F °C ) Humidity (%) Winds ( mph kmh ) Pressure ( in mb ) Visibility ( mi km ) Precip ( " mm )
12:15 am 00:15 Clear 58 14.5 54 12.1 86 86 ESE 5 7 30.17 1022 10 16 N/A
12:35 am 00:35 Clear 58 14.2 54 12.1 87 87 ESE 5 7 30.18 1022 10 16 N/A
12:55 am 00:55 Clear 57 14 54 12 88 88 ESE 3 6 30.19 1022 10 16 N/A
1:15 am 01:15 Clear 56 13.6 54 12 90 90 E 3 6 30.18 1022 10 16 N/A
1:35 am 01:35 Clear 56 13.6 53 11.9 90 90 E 3 6 30.18 1022 10 16 N/A
1:55 am 01:55 Clear 57 13.7 53 11.9 89 89 E 3 6 30.18 1022 10 16 N/A
2:15 am 02:15 Clear 56 13.5 53 11.7 89 89 N N/A 30.18 1022 10 16 N/A
2:35 am 02:35 Clear 56 13.6 53 11.7 88 88 N N/A 30.18 1022 10 16 N/A
2:55 am 02:55 Clear 56 13.5 53 11.5 88 88 N N/A 30.18 1022 10 16 N/A
3:15 am 03:15 Clear 55 13 53 11.5 91 91 N N/A 30.19 1022 10 16 N/A
3:35 am 03:35 Clear 55 12.7 53 11.6 93 93 N N/A 30.19 1022 10 16 N/A
3:55 am 03:55 Clear 55 12.7 54 12 96 96 N N/A 30.19 1022 10 16 N/A
4:15 am 04:15 Clear 55 12.5 53 11.6 94 94 N N/A 30.19 1022 10 16 N/A
4:35 am 04:35 Clear 55 12.7 54 12 96 96 N N/A 30.19 1022 10 16 N/A
4:55 am 04:55 Clear 55 12.5 53 11.7 95 95 N N/A 30.18 1022 10 16 N/A
5:15 am 05:15 Clear 55 12.7 53 11.9 95 95 N N/A 30.18 1022 10 16 N/A
5:35 am 05:35 Clear 55 12.7 54 12 96 96 N N/A 30.18 1022 10 16 N/A
5:55 am 05:55 Clear 55 12.6 53 11.6 94 94 N N/A 30.18 1022 10 16 N/A
6:15 am 06:15 Clear 55 12.7 54 12 96 96 N N/A 30.18 1022 10 16 N/A
6:35 am 06:35 Clear 55 12.7 53 11.5 92 92 N N/A 30.17 1022 10 16 N/A
6:55 am 06:55 Clear 55 12.8 53 11.4 91 91 N N/A 30.17 1022 10 16 N/A
7:15 am 07:15 Clear 56 13.4 53 11.6 89 89 S 3 6 30.16 1021 10 16 N/A
7:35 am 07:35 Sunny 56 13.3 53 11.5 89 89 N N/A 30.16 1021 10 16 N/A
7:55 am 07:55 Sunny 55 12.9 53 11.6 92 92 N N/A 30.17 1022 10 16 N/A
8:15 am 08:15 Sunny 57 14.1 54 12.4 90 90 N N/A 30.16 1021 10 16 N/A
8:35 am 08:35 Sunny 59 14.9 55 12.5 86 86 N N/A 30.15 1021 10 16 N/A
8:55 am 08:55 Sunny 60 15.6 55 13 85 85 N N/A 30.14 1021 10 16 N/A
9:15 am 09:15 Sunny 62 16.6 57 14 85 85 S 5 7 30.14 1020 10 16 N/A
9:35 am 09:35 Sunny 64 17.6 59 14.9 84 84 S 8 13 30.13 1020 10 16 N/A
9:55 am 09:55 Sunny 65 18.5 59 15.2 81 81 S 8 13 30.11 1020 10 16 N/A
10:15 am 10:15 Sunny 67 19.5 61 16 80 80 SSW 13 20 30.11 1020 10 16 N/A
10:30 am 10:30 Sunny 68 20.1 61 16.3 79 79 S 12 19 30.10 1019 10 16 N/A
10:55 am 10:55 Sunny 71 21.4 62 16.9 76 76 S 10 17 30.08 1018 10 16 N/A
11:15 am 11:15 Sunny 73 22.6 63 17.2 72 72 S 13 20 30.06 1018 10 16 N/A
11:35 am 11:35 Sunny 74 23.3 63 17.2 69 69 S 14 22 30.05 1018 10 16 N/A
11:55 am 11:55 Sunny 75 23.7 63 17.1 67 67 S 13 20 30.05 1017 10 16 N/A
12:15 pm 12:15 Sunny 77 24.8 63 17.4 64 64 SSW 14 22 30.03 1017 10 16 N/A
12:35 pm 12:35 Sunny 78 25.5 64 17.6 62 62 S 13 20 30.01 1016 10 16 N/A
12:55 pm 12:55 Sunny 80 26.6 63 17.4 57 57 SSW 15 24 29.99 1016 10 16 N/A
1:15 pm 13:15 Sunny 81 27.3 63 17.4 55 55 S 16 26 29.98 1015 10 16 N/A
1:35 pm 13:35 Sunny 82 27.8 63 17.4 53 53 S 15 24 29.96 1015 10 16 N/A
1:55 pm 13:55 Sunny 82 28 64 17.5 53 53 S 16 26 29.95 1014 10 16 N/A
2:15 pm 14:15 Sunny 83 28.5 63 17.4 51 51 S 18 30 29.94 1014 10 16 N/A
2:35 pm 14:35 Sunny 84 29 63 17.1 49 49 S 17 28 29.92 1013 10 16 N/A
2:55 pm 14:55 Sunny 85 29.2 63 17.3 49 49 S 20 31 29.91 1013 10 16 N/A
3:15 pm 15:15 Sunny 85 29.5 63 17.1 47 47 SSW 21 33 29.90 1013 10 16 N/A
3:35 pm 15:35 Sunny 86 29.8 63 17.1 46 46 S 17 28 29.89 1012 10 16 N/A
3:55 pm 15:55 Sunny 86 30.1 62 16.7 44 44 S 22 35 29.88 1012 10 16 N/A
4:15 pm 16:15 Sunny 87 30.3 61 16.3 43 43 S 22 35 29.86 1011 10 16 N/A
4:35 pm 16:35 Sunny 87 30.3 61 16 42 42 S 20 31 29.86 1011 10 16 N/A
4:55 pm 16:55 Sunny 87 30.5 60 15.5 40 40 S 18 30 29.84 1011 10 16 N/A
5:15 pm 17:15 Sunny 87 30.5 60 15.7 41 41 S 16 26 29.84 1011 10 16 N/A
5:35 pm 17:35 Sunny 86 30.2 60 15.6 41 41 S 20 31 29.85 1011 10 16 N/A
5:55 pm 17:55 Sunny 86 30.2 60 15.6 41 41 S 16 26 29.85 1011 10 16 N/A
6:15 pm 18:15 Sunny 86 30 59 15.2 41 41 S 17 28 29.85 1011 10 16 N/A
6:35 pm 18:35 Sunny 85 29.5 60 15.5 43 43 S 14 22 29.84 1011 10 16 N/A
6:55 pm 18:55 Sunny 83 28.6 61 16.2 47 47 SSE 12 19 29.85 1011 10 16 N/A
7:15 pm 19:15 Sunny 82 27.8 62 16.7 51 51 SSE 10 17 29.84 1011 10 16 N/A
7:30 pm 19:30 Sunny 81 27 63 17 54 54 SSE 14 22 29.85 1011 10 16 N/A
7:55 pm 19:55 Clear 79 25.9 63 17 58 58 SSE 12 19 29.86 1011 10 16 N/A
8:15 pm 20:15 Clear 77 25.1 63 17 61 61 SSE 9 15 29.87 1011 10 16 N/A
8:35 pm 20:35 Clear 77 25 62 16.5 59 59 SSE 10 17 29.88 1012 10 16 N/A
8:55 pm 20:55 Clear 76 24.3 61 16.2 61 61 SSE 12 19 29.88 1012 10 16 N/A
9:15 pm 21:15 Clear 76 24.3 60 15.8 59 59 SSE 13 20 29.88 1012 10 16 N/A
9:35 pm 21:35 Clear 75 24.1 60 15.7 60 60 SSE 12 19 29.88 1012 10 16 N/A
9:55 pm 21:55 Clear 74 23.6 60 15.5 61 61 SSE 12 19 29.89 1012 10 16 N/A
10:15 pm 22:15 Clear 73 22.7 60 15.5 64 64 SSE 7 11 29.90 1012 10 16 N/A
10:35 pm 22:35 Clear 72 22.1 60 15.4 66 66 SSE 8 13 29.90 1013 10 16 N/A
10:55 pm 22:55 Clear 72 22.2 59 15 64 64 SSE 10 17 29.90 1012 10 16 N/A
11:15 pm 23:15 Clear 72 22.3 59 15.1 64 64 S 10 17 29.91 1013 10 16 N/A
11:35 pm 23:35 Clear 71 21.7 59 15.1 66 66 S 8 13 29.91 1013 10 16 N/A
11:55 pm 23:55 Clear 70 21 59 15.1 69 69 S 8 13 29.92 1013 10 16 N/A

Powered by AerisWeather